Regional Weather Roundup
Issued by NWS Charleston, WV

Home | Current Version | Previous Version | Graphics & Text | Print | Product List | Glossary On
Versions: 1 2 3 4 5 6 7 8 9 10 11 12 13 14 15 16 17 18 19 20 21 22 23 24 25 26 27 28 29 30 31 32 33 34 35 36 37 38 39 40 41 42 43 44 45 46 47 48 49 50
000
ASUS41 KRLX 310010
RWRRLX
West Virginia Regional Weather Roundup
National Weather Service Charleston WV
800 PM EDT THU JUL 30 2015

Note: "fair" indicates few or no clouds below 12,000 feet with no
significant weather and/or obstructions to visibility.

WVZ003-310100-
Northern Panhandle of West Virginia

CITY           SKY/WX    TMP DP  RH WIND       PRES   REMARKS
WHEELING       CLEAR     79  57  46 W9        29.98R
$$

WVZ009-310100-
Northwest West Virginia

CITY           SKY/WX    TMP DP  RH WIND       PRES   REMARKS
PARKERSBURG    CLEAR     81  58  45 W7        30.01R
$$

WVZ006-310100-
Western West Virginia

CITY           SKY/WX    TMP DP  RH WIND       PRES   REMARKS
HUNTINGTON     CLEAR     80  58  46 NW6       30.01R
$$

WVZ015-310100-
West Central West Virginia

CITY           SKY/WX    TMP DP  RH WIND       PRES   REMARKS
CHARLESTON     PTCLDY    81  61  50 NW6       30.00R
$$

WVZ022-031-310100-
North Central West Virginia

CITY           SKY/WX    TMP DP  RH WIND       PRES   REMARKS
CLARKSBURG     CLEAR     80  57  45 NW8       29.98R
MORGANTOWN     PTCLDY    84  53  34 NW7       29.99R
$$

WVZ025-035-042-045-310100-
Southern West Virginia

CITY           SKY/WX    TMP DP  RH WIND       PRES   REMARKS
BECKLEY        PTCLDY    75  59  57 N7        30.08R
LOGAN            N/A     79  63  57 CALM      30.01S
BLUEFIELD      PTCLDY    77  62  59 NW8       30.10R
LEWISBURG      PTCLDY    77  61  57 N5        30.07R
$$

WVZ047-310100-
Northern Mountains of West Virginia

CITY           SKY/WX    TMP DP  RH WIND       PRES   REMARKS
ELKINS         PTCLDY    75  59  57 SW3       30.04R
$$

WVZ052-310100-
Eastern Panhandle of West Virginia

CITY           SKY/WX    TMP DP  RH WIND       PRES   REMARKS
MARTINSBURG    PTCLDY    84  59  42 NW7       29.90R
PETERSBURG     CLEAR    N/A N/A N/A NW6       29.97R
$$



USA.gov is the U.S. government's official web portal to all federal, state and local government web resources and services.